SCP
0 0 0 0 0 0 0 0 0 0 0 0 0 0 0 0 0 0 0 0 0 0 0 0 0 0 0 0 0 0 0 0 0 0 0 0 0 0 0 0 0 0 0 0
0 0 0 0 0 0 0 0 0 0 0 0 0 0 0 0 0 0 0 0 0 0 0 0 0 0 0 0 0 0 0 0 0 0 0 0 0 0 0 0 0 0 0 0
0 0 0 0 0 0 0 0 0 0 0 0 0 0 0 0 0 0 0 0 0 0 0 0 0 0 0 0 0 0 0 0 0 0 0 0 0 0 0 0 0 0 0 0
0 0 0 0 0 0 0 0 0 0 0 0 0 0 0 0 0 0 0 0 0 0 0 0 0 0 0 0 0 0 0 0 0 0 0 0 0 0 0 0 0 0 0 0
0 0 0 0 0 0 0 0 0 0 0 0 0 0 0 0 0 0 0 0 0 0 0 0 0 0 0 0 0 0 0 0 0 0 0 0 0 0 0 0 0 0 0 0
0 0 0 0 0 0 0 0 0 0 0 0 0 0 0 0 0 0 0 0 0 0 0 0 0 0 0 0 0 0 0 0 0 0 0 0 0 0 0 0 0 0 0 0
0 0 0 0 0 0 0 0 0 0 0 0 0 0 0 0 0 0 0 0 0 0 0 0 0 0 0 0 0 0 0 0 0 0 0 0 0 0 0 0 0 0 0 0
0 0 0 0 0 0 0 0 0 0 0 0 0 0 0 0 0 0 0 0 0 0 0 0 0 0 0 0 0 0 0 0 0 0 0 0 0 0 0 0 0 0 0 0
0 0 0 0 0 0 0 0 0 0 0 0 0 0 0 0 0 0 0 0 0 0 0 0 0 0 0 0 0 0 0 0 0 0 0 0 0 0 0 0 0 0 0 0
0 0 0 0 0 0 0 0 0 0 0 0 0 0 0 0 0 0 0 0 0 0 0 0 0 0 0 0 0 0 0 0 0 0 0 0 0 0 0 0 0 0 0 0
0 0 0 0 0 0 0 0 0 0 0 0 0 0 0 0 0 0 0 0 0 0 0 0 0 0 0 0 0 0 0 0 0 0 0 0 0 0 0 0 0 0 0 0
0 0 0 0 0 0 0 0 0 0 0 0 0 0 0 0 0 0 0 0 0 0 0 0 0 0 0 0 0 0 0 0 0 0 0 0 0 0 0 0 0 0 0 0
0 0 0 0 0 0 0 0 0 0 0 0 0 0 0 0 0 0 0 0 0 0 0 0 0 0 0 0 0 0 0 0 0 0 0 0 0 0 0 0 0 0 0 0
0 0 0 0 0 0 0 0 0 0 0 0 0 0 0 0 0 0 0 0 0 0 0 0 0 0 0 0 0 0 0 0 0 0 0 0 0 0 0 0 0 0 0 0
0 0 0 0 0 0 0 0 0 0 0 0 0 0 0 0 0 0 0 0 0 0 0 0 0 0 0 0 0 0 0 0 0 0 0 0 0 0 0 0 0 0 0 0
0 0 0 0 0 0 0 0 0 0 0 0 0 0 0 0 0 0 0 0 0 0 0 0 0 0 0 0 0 0 0 0 0 0 0 0 0 0 0 0 0 0 0 0
0 0 0 0 0 0 0 0 0 0 0 0 0 0 0 0 0 0 0 0 0 0 0 0 0 0 0 0 0 0 0 0 0 0 0 0 0 0 0 0 0 0 0 0
0 0 0 0 0 0 0 0 0 0 0 0 0 0 0 0 0 0 0 0 0 0 0 0 0 0 0 0 0 0 0 0 0 0 0 0 0 0 0 0 0 0 0 0
0 0 0 0 0 0 0 0 0 0 0 0 0 0 0 0 0 0 0 0 0 0 0 0 0 0 0 0 0 0 0 0 0 0 0 0 0 0 0 0 0 0 0 0
0 0 0 0 0 0 0 0 0 0 0 0 0 0 0 0 0 0 0 0 0 0 0 0 0 0 0 0 0 0 0 0 0 0 0 0 0 0 0 0 0 0 0 0
0 0 0 0 0 0 0 0 0 0 0 0 0 0 0 0 0 0 0 0 0 0 0 0 0 0 0 0 0 0 0 0 0 0 0 0 0 0 0 0 0 0 0 0
0 0 0 0 0 0 0 0 0 0 0 0 0 0 0 0 0 0 0 0 0 0 0 0 0 0 0 0 0 0 0 0 0 0 0 0 0 0 0 0 0 0 0 0
0 0 0 0 0 0 0 0 0 0 0 0 0 0 0 0 0 0 0 0 0 0 0 0 0 0 0 0 0 0 0 0 0 0 0 0 0 0 0 0 0 0 0 0
0 0 0 0 0 0 0 0 0 0 0 0 0 0 0 0 0 0 0 0 0 0 0 0 0 0 0 0 0 0 0 0 0 0 0 0 0 0 0 0 0 0 0 0
0 0 0 0 0 0 0 0 0 0 0 0 0 0 0 0 0 0 0 0 0 0 0 0 0 0 0 0 0 0 0 0 0 0 0 0 0 0 0 0 0 0 0 0
0 0 0 0 0 0 0 0 0 0 0 0 0 0 0 0 0 0 0 0 0 0 0 0 0 0 0 0 0 0 0 0 0 0 0 0 0 0 0 0 0 0 0 0
Wind_Speed
2 2 4 8 8 5 2 4 7 8 4 6 11 19 23 14 10 14 15 13 14 18 14 9 13 13 12 13 15 16 16 14 11 7 7 6 6 5 5 7 8 9 8 8
3 5 8 3 3 3 3 5 7 7 2 5 8 17 19 14 12 15 16 15 16 14 9 10 11 13 17 17 17 17 18 17 16 12 7 5 4 4 5 5 7 9 9 9
6 6 1 3 3 3 4 6 6 6 4 3 7 14 9 8 5 7 10 11 11 14 15 11 13 15 16 18 21 19 20 19 17 13 7 4 3 2 4 6 7 9 10 10
5 5 2 3 4 5 7 6 5 3 3 6 3 10 12 7 9 9 11 11 13 14 13 11 12 14 18 21 17 17 18 18 16 15 14 13 12 11 11 7 7 8 10 9
6 3 4 6 6 7 7 0 0 1 2 5 3 6 14 7 9 11 10 11 13 13 13 14 15 17 17 15 14 15 15 16 17 18 19 18 15 10 5 5 7 8 8 9
7 3 4 5 0 2 2 3 3 4 3 5 5 5 13 8 9 9 8 8 9 10 10 12 11 9 10 11 12 13 16 18 17 19 19 20 19 13 9 9 9 8 6 7
6 4 2 2 2 2 3 3 5 6 3 7 2 4 15 15 10 9 12 12 9 8 8 10 10 11 12 12 14 14 17 18 18 19 20 21 20 17 17 14 13 10 8 8
4 7 3 3 5 4 3 5 5 4 6 7 3 9 14 14 9 9 10 11 11 10 8 10 10 11 11 12 13 15 18 19 18 20 21 18 17 13 12 14 11 12 10 10
4 6 1 1 2 6 4 4 3 3 4 5 9 10 15 11 8 6 7 8 11 11 10 10 9 8 9 10 13 16 17 17 18 19 18 17 17 16 15 13 12 9 9 8
5 5 4 1 1 0 2 5 4 2 3 7 8 7 8 10 12 11 10 10 11 10 9 9 8 8 8 9 9 10 14 16 16 16 17 15 17 17 14 12 13 12 12 10
4 4 5 2 5 6 4 3 4 2 3 4 7 10 9 10 12 11 13 12 11 11 11 10 9 7 7 7 8 11 13 13 14 16 16 16 15 15 14 14 15 14 12 12
3 4 4 7 3 3 6 6 7 4 6 6 5 14 11 11 11 10 12 13 12 12 11 10 10 8 6 7 8 10 11 13 14 13 14 15 14 14 16 16 15 14 14 13
4 3 4 7 2 1 2 4 5 4 2 5 6 16 7 8 11 11 12 13 13 13 12 10 8 7 7 7 7 9 11 12 11 11 13 14 15 16 18 18 16 14 14 12
6 4 7 9 9 3 5 5 6 6 6 8 14 22 22 21 20 19 16 13 12 11 10 9 9 8 7 6 7 8 10 10 10 11 14 16 18 18 18 16 15 15 14 13
4 4 7 9 9 6 8 10 10 13 14 15 21 22 27 22 17 15 13 12 12 12 11 10 9 8 7 6 7 8 9 9 10 12 15 18 16 14 14 14 14 14 14 14
3 4 4 7 9 9 10 14 18 19 16 16 21 25 21 13 9 9 10 10 11 11 11 10 9 9 9 8 7 8 9 9 11 14 16 14 12 13 14 14 13 13 13 12
6 6 4 8 5 5 11 15 18 11 10 10 14 14 9 12 13 11 10 9 9 10 10 10 10 9 9 9 8 8 9 8 11 14 14 13 13 14 15 14 14 14 14 13
8 5 3 4 1 12 12 5 9 11 12 11 10 10 10 11 11 9 6 5 8 10 10 10 10 10 10 9 8 7 6 7 9 12 13 12 13 14 13 14 15 15 12 12
7 7 4 3 6 13 9 9 7 8 9 6 6 6 7 7 7 5 3 4 7 9 11 11 10 10 10 11 9 7 7 7 9 12 13 12 12 13 14 15 15 14 12 12
3 4 4 4 6 11 10 6 0 1 7 3 2 4 6 7 9 9 9 11 11 11 10 10 10 10 11 11 7 7 8 8 11 12 12 11 12 14 15 16 14 12 12 12
3 3 6 7 9 13 10 4 1 4 7 2 3 6 7 6 8 11 12 12 11 11 12 10 10 9 11 10 7 8 10 12 12 9 8 10 12 14 14 12 11 10 11 10
7 6 7 6 7 13 6 3 5 8 5 6 8 8 9 11 11 11 11 11 11 11 11 10 9 10 11 9 7 10 13 12 9 8 8 9 10 10 10 10 10 10 11 11
9 10 8 12 12 8 3 7 7 6 9 10 9 10 11 11 11 11 11 11 11 11 11 9 9 11 12 9 7 11 13 10 9 8 9 8 8 9 9 10 10 10 10 9
7 6 7 10 13 12 11 10 10 12 13 11 10 10 10 11 11 11 10 10 10 10 10 9 10 11 13 11 9 10 12 10 9 9 8 6 7 8 8 8 9 10 11 10
8 5 7 14 14 12 10 11 11 10 10 11 10 8 7 7 9 9 9 10 10 10 9 8 10 11 13 13 12 11 10 9 9 9 8 6 7 7 8 9 10 11 11 13
10 13 15 20 14 13 14 10 11 11 9 7 6 5 6 6 8 9 9 9 10 11 10 10 11 12 13 13 14 13 10 8 8 9 7 5 5 6 7 7 8 17 16 20
Wind_Direction
42 69 233 228 211 218 229 240 264 264 219 196 242 260 270 265 230 244 246 241 239 241 240 209 205 203 199 200 202 203 202 198 184 178 182 186 204 202 203 206 201 197 195 193
20 264 243 219 183 201 228 263 272 283 215 211 275 275 269 263 238 234 237 236 235 240 239 212 202 199 202 204 205 204 205 199 196 196 181 175 173 190 200 200 201 200 197 195
219 248 183 163 185 211 240 227 249 272 320 274 309 295 287 290 251 254 240 237 235 231 237 221 205 206 205 208 207 206 205 202 199 188 165 147 135 149 179 199 204 202 198 196
249 262 201 214 233 194 261 243 232 276 321 298 351 300 291 288 298 268 250 236 237 235 233 226 209 208 210 214 207 207 203 202 196 186 188 188 195 203 201 192 193 192 195 196
266 229 202 226 235 190 229 351 142 299 247 298 260 245 284 313 286 273 257 240 236 232 225 227 218 216 215 210 202 204 201 202 197 195 199 201 210 210 179 175 185 193 196 198
249 251 207 214 116 163 139 60 51 53 69 288 241 199 282 266 247 276 289 271 254 245 233 234 228 216 214 200 198 197 200 205 199 199 203 206 211 199 183 187 192 195 196 200
314 298 241 150 116 41 94 70 348 337 340 260 200 214 254 259 251 252 275 288 290 273 248 240 229 217 214 203 200 198 200 207 202 202 207 210 212 204 202 197 198 194 195 202
306 302 237 196 192 186 178 155 178 257 267 288 274 240 257 269 280 268 268 278 288 280 261 248 237 224 218 208 200 198 204 209 203 205 210 211 210 208 209 204 197 198 201 202
212 272 303 163 192 152 160 205 178 169 282 282 275 288 297 293 316 315 301 296 289 287 282 268 260 239 225 212 205 203 206 210 206 207 209 210 209 209 209 202 199 198 199 195
180 263 297 16 84 20 169 159 110 146 278 285 288 277 262 295 303 314 317 310 303 302 293 281 269 252 235 221 211 202 208 213 211 207 208 211 210 211 208 199 200 200 199 194
178 218 297 313 212 205 148 161 161 170 200 227 279 269 239 248 270 288 295 296 294 295 291 284 274 257 235 217 204 205 210 214 212 210 210 213 210 208 205 206 205 201 197 195
159 138 265 266 241 176 178 191 160 188 244 208 249 270 256 259 275 279 284 291 291 287 283 282 282 276 252 230 216 213 213 216 217 211 209 213 211 204 207 210 207 200 198 197
138 119 341 336 348 84 225 213 195 192 197 209 229 269 273 291 292 287 286 289 292 294 296 297 294 284 266 245 227 221 220 222 217 207 210 213 212 209 211 211 206 199 197 195
134 171 198 229 245 244 234 230 196 188 223 242 236 262 283 288 293 301 306 303 301 301 302 303 302 296 280 256 234 228 229 222 214 209 213 217 216 215 215 211 204 199 195 194
130 229 240 253 266 268 246 247 229 217 225 241 263 268 277 287 299 302 305 310 311 312 315 313 307 303 296 277 251 234 234 222 211 213 219 223 220 216 213 209 204 198 195 196
152 228 253 262 253 250 253 248 246 246 242 243 263 273 276 294 302 303 309 313 316 317 316 313 311 308 301 287 268 247 238 223 209 218 225 225 218 214 213 210 203 198 196 193
197 200 241 267 272 292 261 235 234 230 218 213 242 260 311 324 321 316 314 317 315 314 311 309 305 299 293 287 273 259 246 221 214 224 229 222 216 216 213 207 203 200 196 191
181 177 220 279 327 240 244 235 223 233 247 234 250 280 298 295 295 287 278 306 320 316 310 306 302 300 296 289 282 269 254 229 225 231 232 224 216 218 212 206 206 202 195 191
184 171 203 225 253 270 286 268 220 214 266 241 233 273 292 297 311 291 283 319 310 304 298 294 292 290 291 293 291 282 267 245 238 240 236 226 217 216 211 210 208 200 193 192
112 160 188 200 228 256 250 253 225 138 277 254 201 304 312 342 336 304 311 319 313 307 301 299 299 299 298 298 300 286 276 260 251 247 240 226 215 215 216 214 208 199 194 194
143 172 203 220 239 263 260 278 127 211 250 289 305 311 310 296 264 277 296 301 300 299 299 301 303 302 298 302 303 286 280 270 265 257 242 227 218 217 217 212 204 194 193 189
197 203 211 205 224 256 252 165 202 238 284 304 305 298 291 285 283 289 295 298 302 303 303 306 308 306 305 305 299 288 284 281 277 261 245 232 221 214 211 207 200 192 191 189
211 205 205 205 226 245 228 227 258 285 292 294 293 292 290 291 294 299 300 302 303 302 303 305 306 308 309 307 297 288 290 293 286 270 253 237 220 210 203 199 196 191 193 195
235 214 229 254 257 259 267 272 275 277 280 287 289 291 293 293 297 301 302 302 303 301 305 308 312 312 310 311 304 288 291 293 284 273 261 237 217 210 203 200 197 197 198 198
227 231 244 258 270 279 258 258 269 280 287 294 297 298 301 302 302 300 301 302 303 303 304 307 306 303 304 306 304 299 296 295 285 275 262 237 218 209 206 207 208 206 209 204
217 233 249 262 267 272 282 282 285 287 290 295 306 314 313 304 298 301 300 299 299 301 303 305 303 303 304 305 303 303 300 293 283 279 264 237 218 210 208 211 221 225 220 223